Overview Statistics Trail Chart Weather Telemetry Raw packets
 

This is the latest recevied weather packets stored in our database for station/object F8KHU-13. If no packets are shown the sender has not sent any weather packets the latest 10 day(s).

<< 19 20 21 22 23 24 25 >>
Time Temp. Humidity Pressure Rain* Wind** Luminosity Snow
1788441064 21.67° C 27% 1020.2 hPa 0 mm - 0 W/m² -
1788441057 20.56° C 27% 1020.2 hPa 0 mm - 0 W/m² -
1788440164 22.78° C 26% 1020.2 hPa 0 mm - 0 W/m² -
1788440144 22.78° C 26% 1020.1 hPa 0 mm - 0 W/m² -
1788440124 22.78° C 26% 1020.2 hPa 0 mm - 0 W/m² -
1788439264 22.78° C 26% 1019.9 hPa 0 mm - 0 W/m² -
1788439244 23.89° C 26% 1020 hPa 0 mm - 0 W/m² -
1788439224 22.78° C 26% 1019.9 hPa 0 mm - 0 W/m² -
1788438364 22.78° C 26% 1019.8 hPa 0 mm - 0 W/m² -
1788438344 22.78° C 26% 1019.9 hPa 0 mm - 0 W/m² -
1788438324 21.67° C 27% 1019.9 hPa 0 mm - 0 W/m² -
1788437464 20.56° C 27% 1020 hPa 0 mm - 0 W/m² -
1788437444 20.56° C 28% 1020 hPa 0 mm - 0 W/m² -
1788437425 20.56° C 27% 1020.2 hPa 0 mm - 0 W/m² -
1788436565 20.56° C 28% 1020.1 hPa 0 mm - 0 W/m² -
1788436544 20.56° C 28% 1020.2 hPa 0 mm - 0 W/m² -
1788436525 20.56° C 28% 1020.3 hPa 0 mm - 0 W/m² -
1788435665 20.56° C 28% 1020.2 hPa 0 mm - 0 W/m² -
1788435644 20.56° C 28% 1020.2 hPa 0 mm - 0 W/m² -
1788434767 20.56° C 28% 1020.3 hPa 0 mm - 0 W/m² -
1788434725 20.56° C 28% 1020.3 hPa 0 mm - 0 W/m² -
1788433865 20° C 29% 1020.3 hPa 0 mm - 0 W/m² -
1788433845 20° C 29% 1020.3 hPa 0 mm - 0 W/m² -
1788433825 20° C 29% 1020.3 hPa 0 mm - 0 W/m² -
1788432965 20° C 29% 1020.3 hPa 0 mm - 0 W/m² -

* Rain latest hour (hover to see other rain measurements)
** Current wind speed in m/s (hover to see current wind gust speed)